| time (UTC) | temp F | wind direction | speed MPH | gust MPH | rain 1hr in | rain 24hr in | rain mn in | humidity % | barometer mb |
| 20260507010005 | 44 | 302 | 0.0 | 2.0 | 0.00 | 0.00 | 0.00 | 54 | 1014.3 |
| 20260507005506 | 44 | 302 | 0.0 | 2.0 | 0.00 | 0.00 | 0.00 | 56 | 1014.3 |
| 20260507005006 | 44 | 302 | 0.0 | 1.0 | 0.00 | 0.00 | 0.00 | 55 | 1014.3 |
| 20260507004506 | 44 | 302 | 0.0 | 0.0 | 0.00 | 0.00 | 0.00 | 54 | 1014.2 |
| 20260507004006 | 44 | 302 | 0.0 | 1.0 | 0.00 | 0.00 | 0.00 | 53 | 1014.2 |
| 20260507003506 | 44 | 302 | 0.0 | 3.0 | 0.00 | 0.00 | 0.00 | 54 | 1014.2 |
| 20260507003007 | 45 | 302 | 0.0 | 3.0 | 0.00 | 0.00 | 0.00 | 55 | 1014.2 |
| 20260507002506 | 45 | 302 | 1.0 | 3.0 | 0.00 | 0.00 | 0.00 | 52 | 1014.2 |
| 20260507002005 | 45 | 302 | 1.0 | 3.0 | 0.00 | 0.00 | 0.00 | 52 | 1014.2 |
| 20260507001505 | 45 | 302 | 0.0 | 3.0 | 0.00 | 0.00 | 0.00 | 52 | 1014.2 |
| 20260507000505 | 45 | 295 | 1.0 | 3.0 | 0.00 | 0.00 | 0.00 | 51 | 1014.2 |
| 20260506234506 | 47 | 317 | 2.0 | 3.0 | 0.00 | 0.00 | 0.00 | 49 | 1014.3 |
| 20260506234006 | 47 | 317 | 2.0 | 8.0 | 0.00 | 0.00 | 0.00 | 48 | 1014.3 |
| 20260506233506 | 47 | 305 | 3.0 | 10.0 | 0.00 | 0.00 | 0.00 | 47 | 1014.3 |
| 20260506233006 | 47 | 200 | 2.0 | 5.0 | 0.00 | 0.00 | 0.00 | 47 | 1014.2 |
| 20260506232506 | 47 | 323 | 1.0 | 6.0 | 0.00 | 0.00 | 0.00 | 49 | 1014.2 |
| 20260506232006 | 47 | 269 | 2.0 | 5.0 | 0.00 | 0.00 | 0.00 | 48 | 1014.2 |
| 20260506231506 | 47 | 243 | 2.0 | 8.0 | 0.00 | 0.00 | 0.00 | 49 | 1014.2 |
| 20260506231005 | 47 | 223 | 2.0 | 7.0 | 0.00 | 0.00 | 0.00 | 49 | 1014.3 |
| 20260506230506 | 46 | 299 | 2.0 | 5.0 | 0.00 | 0.00 | 0.00 | 49 | 1014.2 |
| 20260506225506 | 46 | 296 | 2.0 | 3.0 | 0.00 | 0.00 | 0.00 | 50 | 1014.2 |
| 20260506225006 | 46 | 295 | 2.0 | 5.0 | 0.00 | 0.00 | 0.00 | 49 | 1014.3 |
| 20260506224505 | 46 | 306 | 2.0 | 3.0 | 0.00 | 0.00 | 0.00 | 51 | 1014.3 |
| 20260506224006 | 46 | 305 | 2.0 | 3.0 | 0.00 | 0.00 | 0.00 | 51 | 1014.4 |
| 20260506223505 | 46 | 306 | 3.0 | 3.0 | 0.00 | 0.00 | 0.00 | 51 | 1014.4 |
| 20260506223006 | 46 | 328 | 1.0 | 8.0 | 0.00 | 0.00 | 0.00 | 51 | 1014.4 |
| 20260506222506 | 46 | 259 | 2.0 | 6.0 | 0.00 | 0.00 | 0.00 | 51 | 1014.5 |
| 20260506222005 | 45 | 240 | 2.0 | 3.0 | 0.00 | 0.00 | 0.00 | 52 | 1014.5 |
| 20260506221505 | 45 | 305 | 3.0 | 7.0 | 0.00 | 0.00 | 0.00 | 50 | 1014.6 |
| 20260506221005 | 45 | 263 | 2.0 | 5.0 | 0.00 | 0.00 | 0.00 | 51 | 1014.6 |
| 20260506220505 | 45 | 302 | 3.0 | 9.0 | 0.00 | 0.00 | 0.00 | 50 | 1014.7 |
| 20260506220005 | 46 | 219 | 2.0 | 9.0 | 0.00 | 0.00 | 0.00 | 50 | 1014.7 |
| 20260506215505 | 46 | 322 | 1.0 | 7.0 | 0.00 | 0.00 | 0.00 | 52 | 1014.7 |
| 20260506215006 | 45 | 294 | 2.0 | 7.0 | 0.00 | 0.00 | 0.00 | 52 | 1014.8 |
| 20260506214506 | 45 | 274 | 3.0 | 6.0 | 0.00 | 0.00 | 0.00 | 51 | 1014.8 |
| 20260506214005 | 45 | 337 | 2.0 | 9.0 | 0.00 | 0.00 | 0.00 | 52 | 1014.8 |
| 20260506213505 | 45 | 309 | 1.0 | 3.0 | 0.00 | 0.00 | 0.00 | 53 | 1014.9 |
| 20260506213005 | 45 | 313 | 3.0 | 9.0 | 0.00 | 0.00 | 0.00 | 51 | 1015.0 |
| 20260506212505 | 45 | 195 | 2.0 | 3.0 | 0.00 | 0.00 | 0.00 | 54 | 1014.9 |
| 20260506212006 | 44 | 263 | 0.0 | 3.0 | 0.00 | 0.00 | 0.00 | 53 | 1014.9 |
| 20260506211505 | 44 | 235 | 2.0 | 3.0 | 0.00 | 0.00 | 0.00 | 52 | 1015.1 |
| 20260506210505 | 44 | 257 | 2.0 | 9.0 | 0.00 | 0.00 | 0.00 | 51 | 1015.1 |
| 20260506210005 | 44 | 305 | 3.0 | 9.0 | 0.00 | 0.00 | 0.00 | 53 | 1015.1 |
| 20260506205505 | 44 | 296 | 2.0 | 8.0 | 0.00 | 0.00 | 0.00 | 54 | 1015.1 |
| 20260506205005 | 43 | 283 | 1.0 | 5.0 | 0.00 | 0.00 | 0.00 | 53 | 1015.2 |
| 20260506204006 | 43 | 304 | 3.0 | 12.0 | 0.00 | 0.00 | 0.00 | 53 | 1015.2 |
| 20260506203005 | 43 | 292 | 2.0 | 5.0 | 0.00 | 0.00 | 0.00 | 55 | 1015.3 |
| 20260506202505 | 43 | 287 | 3.0 | 5.0 | 0.00 | 0.00 | 0.00 | 53 | 1015.2 |
| 20260506202005 | 43 | 292 | 5.0 | 12.0 | 0.00 | 0.00 | 0.00 | 53 | 1015.3 |
| 20260506201505 | 43 | 279 | 3.0 | 7.0 | 0.00 | 0.00 | 0.00 | 54 | 1015.3 |
| 20260506201005 | 43 | 244 | 2.0 | 7.0 | 0.00 | 0.00 | 0.00 | 55 | 1015.3 |
| 20260506200005 | 43 | 265 | 3.0 | 8.0 | 0.00 | 0.00 | 0.00 | 55 | 1015.3 |
| 20260506195505 | 43 | 296 | 3.0 | 7.0 | 0.00 | 0.00 | 0.00 | 54 | 1015.3 |
| 20260506195005 | 43 | 297 | 2.0 | 7.0 | 0.00 | 0.00 | 0.00 | 54 | 1015.4 |
| 20260506194005 | 43 | 238 | 3.0 | 6.0 | 0.00 | 0.00 | 0.00 | 53 | 1015.4 |
| 20260506193505 | 43 | 279 | 2.0 | 12.0 | 0.00 | 0.00 | 0.00 | 54 | 1015.4 |
| 20260506193005 | 42 | 299 | 3.0 | 12.0 | 0.00 | 0.00 | 0.00 | 56 | 1015.3 |
| 20260506192505 | 42 | 260 | 3.0 | 3.0 | 0.00 | 0.00 | 0.00 | 52 | 1015.4 |
| 20260506191505 | 42 | 248 | 3.0 | 7.0 | 0.00 | 0.00 | 0.00 | 54 | 1015.4 |
| 20260506191006 | 42 | 219 | 2.0 | 3.0 | 0.00 | 0.00 | 0.00 | 54 | 1015.4 |
| 20260506190505 | 42 | 266 | 2.0 | 9.0 | 0.00 | 0.00 | 0.00 | 55 | 1015.5 |
| 20260506190006 | 42 | 302 | 2.0 | 9.0 | 0.00 | 0.00 | 0.00 | 54 | 1015.5 |
| 20260506184505 | 42 | 208 | 2.0 | 3.0 | 0.00 | 0.00 | 0.00 | 54 | 1015.5 |
| 20260506184006 | 42 | 265 | 1.0 | 3.0 | 0.00 | 0.00 | 0.00 | 53 | 1015.6 |
| 20260506183006 | 42 | 217 | 3.0 | 8.0 | 0.00 | 0.00 | 0.00 | 54 | 1015.5 |
| 20260506182005 | 42 | 285 | 1.0 | 3.0 | 0.00 | 0.00 | 0.00 | 53 | 1015.5 |
| 20260506181506 | 42 | 224 | 2.0 | 3.0 | 0.00 | 0.00 | 0.00 | 55 | 1015.5 |
| 20260506181005 | 42 | 229 | 2.0 | 9.0 | 0.00 | 0.00 | 0.00 | 54 | 1015.5 |
| 20260506180006 | 42 | 336 | 2.0 | 5.0 | 0.00 | 0.00 | 0.00 | 54 | 1015.5 |
| 20260506175505 | 42 | 291 | 4.0 | 12.0 | 0.00 | 0.00 | 0.00 | 54 | 1015.5 |
| 20260506175006 | 42 | 299 | 3.0 | 9.0 | 0.00 | 0.00 | 0.00 | 56 | 1015.5 |
| 20260506174506 | 42 | 310 | 3.0 | 9.0 | 0.00 | 0.00 | 0.00 | 54 | 1015.6 |
| 20260506174005 | 42 | 289 | 2.0 | 8.0 | 0.00 | 0.00 | 0.00 | 57 | 1015.6 |
| 20260506173505 | 42 | 279 | 2.0 | 9.0 | 0.00 | 0.00 | 0.00 | 56 | 1015.7 |
| 20260506173005 | 42 | 310 | 2.0 | 6.0 | 0.00 | 0.00 | 0.00 | 56 | 1015.7 |
| 20260506172505 | 42 | 291 | 3.0 | 7.0 | 0.00 | 0.00 | 0.00 | 56 | 1015.7 |
| 20260506172005 | 42 | 272 | 3.0 | 7.0 | 0.00 | 0.00 | 0.00 | 56 | 1015.8 |
| 20260506171505 | 41 | 274 | 1.0 | 3.0 | 0.00 | 0.00 | 0.00 | 57 | 1015.8 |
| 20260506171005 | 41 | 304 | 2.0 | 8.0 | 0.00 | 0.00 | 0.00 | 56 | 1015.8 |
| 20260506170505 | 41 | 306 | 3.0 | 12.0 | 0.00 | 0.00 | 0.00 | 56 | 1015.8 |
| 20260506170005 | 41 | 295 | 4.0 | 12.0 | 0.00 | 0.00 | 0.00 | 55 | 1015.8 |
| 20260506165505 | 41 | 239 | 3.0 | 5.0 | 0.00 | 0.00 | 0.00 | 56 | 1015.9 |
| 20260506165005 | 42 | 254 | 2.0 | 9.0 | 0.00 | 0.00 | 0.00 | 56 | 1015.9 |
| 20260506164505 | 42 | 279 | 2.0 | 9.0 | 0.00 | 0.00 | 0.00 | 57 | 1015.7 |
| 20260506164005 | 41 | 273 | 3.0 | 12.0 | 0.00 | 0.00 | 0.00 | 57 | 1015.7 |
| 20260506163505 | 41 | 304 | 3.0 | 9.0 | 0.00 | 0.00 | 0.00 | 56 | 1015.7 |
| 20260506162505 | 41 | 247 | 2.0 | 7.0 | 0.00 | 0.00 | 0.00 | 57 | 1015.7 |
| 20260506162005 | 41 | 305 | 3.0 | 7.0 | 0.00 | 0.00 | 0.00 | 56 | 1015.6 |
| 20260506161505 | 41 | 283 | 2.0 | 7.0 | 0.00 | 0.00 | 0.00 | 56 | 1015.7 |
| 20260506161006 | 41 | 279 | 3.0 | 7.0 | 0.00 | 0.00 | 0.00 | 56 | 1015.7 |
| 20260506160005 | 41 | 297 | 3.0 | 8.0 | 0.00 | 0.00 | 0.00 | 57 | 1015.7 |
| 20260506155006 | 41 | 231 | 2.0 | 7.0 | 0.00 | 0.00 | 0.00 | 57 | 1015.5 |
| 20260506154505 | 41 | 249 | 3.0 | 7.0 | 0.00 | 0.00 | 0.00 | 55 | 1015.5 |
| 20260506154005 | 41 | 266 | 3.0 | 8.0 | 0.00 | 0.00 | 0.00 | 56 | 1015.4 |
| 20260506153506 | 41 | 211 | 1.0 | 8.0 | 0.00 | 0.00 | 0.00 | 56 | 1015.4 |
| 20260506152506 | 41 | 298 | 2.0 | 7.0 | 0.00 | 0.00 | 0.00 | 56 | 1015.3 |
| 20260506152005 | 41 | 230 | 2.0 | 8.0 | 0.00 | 0.00 | 0.00 | 57 | 1015.3 |
| 20260506151505 | 41 | 267 | 2.0 | 8.0 | 0.00 | 0.00 | 0.00 | 57 | 1015.3 |
| 20260506150005 | 41 | 300 | 2.0 | 8.0 | 0.00 | 0.00 | 0.00 | 56 | 1015.4 |
| 20260506145505 | 41 | 251 | 2.0 | 5.0 | 0.00 | 0.00 | 0.00 | 55 | 1015.4 |
| 20260506145005 | 41 | 312 | 2.0 | 7.0 | 0.00 | 0.00 | 0.00 | 56 | 1015.4 |
| 20260506144505 | 41 | 313 | 2.0 | 3.0 | 0.00 | 0.00 | 0.00 | 57 | 1015.4 |
| 20260506144005 | 41 | 274 | 2.0 | 8.0 | 0.00 | 0.00 | 0.00 | 56 | 1015.4 |
| 20260506143505 | 41 | 296 | 3.0 | 8.0 | 0.00 | 0.00 | 0.00 | 55 | 1015.5 |
| 20260506142006 | 41 | 293 | 3.0 | 7.0 | 0.00 | 0.00 | 0.00 | 55 | 1015.4 |
| 20260506141505 | 41 | 211 | 2.0 | 7.0 | 0.00 | 0.00 | 0.00 | 55 | 1015.4 |
| 20260506140505 | 41 | 231 | 3.0 | 8.0 | 0.00 | 0.00 | 0.00 | 58 | 1015.3 |
| 20260506140006 | 41 | 315 | 3.0 | 7.0 | 0.00 | 0.00 | 0.00 | 58 | 1015.2 |
| 20260506135505 | 41 | 305 | 2.0 | 7.0 | 0.00 | 0.00 | 0.00 | 57 | 1015.2 |
| 20260506135005 | 41 | 208 | 2.0 | 5.0 | 0.00 | 0.00 | 0.00 | 58 | 1015.2 |
| 20260506134505 | 41 | 232 | 3.0 | 8.0 | 0.00 | 0.00 | 0.00 | 57 | 1015.1 |
| 20260506134006 | 41 | 294 | 3.0 | 9.0 | 0.00 | 0.00 | 0.00 | 59 | 1015.0 |
| 20260506133505 | 41 | 290 | 1.0 | 3.0 | 0.00 | 0.00 | 0.00 | 60 | 1015.0 |
| 20260506133005 | 40 | 289 | 2.0 | 3.0 | 0.00 | 0.00 | 0.00 | 60 | 1014.9 |
| 20260506132505 | 40 | 274 | 2.0 | 3.0 | 0.00 | 0.00 | 0.00 | 62 | 1014.9 |
| 20260506132005 | 39 | 290 | 1.0 | 7.0 | 0.00 | 0.00 | 0.00 | 62 | 1014.9 |
| 20260506131505 | 39 | 297 | 1.0 | 3.0 | 0.00 | 0.00 | 0.00 | 63 | 1014.9 |
| 20260506131005 | 39 | 297 | 2.0 | 3.0 | 0.00 | 0.00 | 0.00 | 64 | 1014.9 |
| 20260506130505 | 38 | 297 | 2.0 | 5.0 | 0.00 | 0.00 | 0.00 | 66 | 1014.8 |
| 20260506125005 | 37 | 297 | 2.0 | 3.0 | 0.00 | 0.00 | 0.00 | 68 | 1014.7 |
| 20260506124505 | 36 | 313 | 0.0 | 2.0 | 0.00 | 0.00 | 0.00 | 72 | 1014.7 |
| 20260506124006 | 36 | 313 | 1.0 | 3.0 | 0.00 | 0.00 | 0.00 | 73 | 1014.6 |
| 20260506123506 | 35 | 312 | 1.0 | 3.0 | 0.00 | 0.00 | 0.00 | 75 | 1014.5 |
| 20260506123005 | 34 | 312 | 0.0 | 1.0 | 0.00 | 0.00 | 0.00 | 76 | 1014.4 |
| 20260506122505 | 34 | 312 | 1.0 | 2.0 | 0.00 | 0.00 | 0.00 | 76 | 1014.3 |
| 20260506122005 | 33 | 312 | 0.0 | 1.0 | 0.00 | 0.00 | 0.00 | 77 | 1014.3 |
| 20260506121505 | 33 | 312 | 0.0 | 0.0 | 0.00 | 0.00 | 0.00 | 78 | 1014.2 |
| 20260506121005 | 33 | 312 | 0.0 | 0.0 | 0.00 | 0.00 | 0.00 | 79 | 1014.3 |
| 20260506120505 | 32 | 312 | 0.0 | 0.0 | 0.00 | 0.00 | 0.00 | 80 | 1014.3 |
| 20260506115505 | 31 | 312 | 0.0 | 0.0 | 0.00 | 0.00 | 0.00 | 82 | 1014.1 |
| 20260506114505 | 31 | 312 | 0.0 | 0.0 | 0.00 | 0.00 | 0.00 | 82 | 1013.7 |
| 20260506114005 | 31 | 312 | 0.0 | 1.0 | 0.00 | 0.00 | 0.00 | 82 | 1013.7 |
| 20260506113505 | 31 | 312 | 0.0 | 1.0 | 0.00 | 0.00 | 0.00 | 82 | 1013.7 |
| 20260506112505 | 31 | 312 | 0.0 | 0.0 | 0.00 | 0.00 | 0.00 | 81 | 1013.6 |
| 20260506112005 | 31 | 312 | 0.0 | 0.0 | 0.00 | 0.00 | 0.00 | 80 | 1013.6 |
| 20260506111505 | 31 | 312 | 0.0 | 0.0 | 0.00 | 0.00 | 0.00 | 80 | 1013.7 |
| 20260506111005 | 31 | 312 | 0.0 | 0.0 | 0.00 | 0.00 | 0.00 | 80 | 1013.7 |
| 20260506110005 | 31 | 312 | 0.0 | 0.0 | 0.00 | 0.00 | 0.00 | 80 | 1013.7 |
| 20260506105505 | 31 | 312 | 0.0 | 0.0 | 0.00 | 0.00 | 0.00 | 80 | 1013.6 |
| 20260506105005 | 31 | 312 | 0.0 | 0.0 | 0.00 | 0.00 | 0.00 | 79 | 1013.7 |
| 20260506104505 | 32 | 312 | 0.0 | 0.0 | 0.00 | 0.00 | 0.00 | 79 | 1013.6 |
| 20260506104006 | 32 | 312 | 0.0 | 0.0 | 0.00 | 0.00 | 0.00 | 79 | 1013.6 |
| 20260506103505 | 32 | 312 | 0.0 | 0.0 | 0.00 | 0.00 | 0.00 | 79 | 1013.6 |
| 20260506103006 | 32 | 312 | 0.0 | 0.0 | 0.00 | 0.00 | 0.00 | 78 | 1013.6 |
| 20260506102505 | 32 | 312 | 0.0 | 0.0 | 0.00 | 0.00 | 0.00 | 78 | 1013.4 |
| 20260506101505 | 32 | 312 | 0.0 | 0.0 | 0.00 | 0.00 | 0.00 | 77 | 1013.3 |
| 20260506101006 | 32 | 312 | 0.0 | 0.0 | 0.00 | 0.00 | 0.00 | 77 | 1013.2 |
| 20260506100005 | 33 | 312 | 0.0 | 0.0 | 0.00 | 0.00 | 0.00 | 76 | 1013.4 |
| 20260506095505 | 33 | 312 | 0.0 | 0.0 | 0.00 | 0.00 | 0.00 | 75 | 1013.2 |
| 20260506095005 | 33 | 312 | 0.0 | 0.0 | 0.00 | 0.00 | 0.00 | 75 | 1013.2 |
| 20260506094506 | 33 | 312 | 0.0 | 0.0 | 0.00 | 0.00 | 0.00 | 74 | 1013.1 |
| 20260506094005 | 33 | 312 | 0.0 | 0.0 | 0.00 | 0.00 | 0.00 | 74 | 1013.1 |
| 20260506093506 | 33 | 312 | 0.0 | 0.0 | 0.00 | 0.00 | 0.00 | 74 | 1012.9 |
| 20260506093006 | 34 | 312 | 0.0 | 1.0 | 0.00 | 0.00 | 0.00 | 74 | 1012.9 |
| 20260506091506 | 34 | 312 | 1.0 | 3.0 | 0.00 | 0.00 | 0.00 | 73 | 1013.1 |
| 20260506091006 | 34 | 312 | 0.0 | 1.0 | 0.00 | 0.00 | 0.00 | 73 | 1013.1 |
| 20260506090507 | 34 | 312 | 0.0 | 1.0 | 0.00 | 0.00 | 0.00 | 73 | 1013.0 |
| 20260506090007 | 34 | 312 | 0.0 | 0.0 | 0.00 | 0.00 | 0.00 | 72 | 1012.9 |
| 20260506085506 | 34 | 312 | 0.0 | 0.0 | 0.00 | 0.00 | 0.00 | 72 | 1012.8 |
| 20260506085006 | 34 | 312 | 0.0 | 0.0 | 0.00 | 0.00 | 0.00 | 71 | 1012.7 |
| 20260506084506 | 34 | 312 | 0.0 | 2.0 | 0.00 | 0.00 | 0.00 | 71 | 1012.8 |
| 20260506084007 | 35 | 312 | 0.0 | 2.0 | 0.00 | 0.00 | 0.00 | 71 | 1012.8 |
| 20260506083506 | 35 | 312 | 0.0 | 2.0 | 0.00 | 0.00 | 0.00 | 71 | 1012.8 |
| 20260506083006 | 35 | 312 | 0.0 | 1.0 | 0.00 | 0.00 | 0.00 | 70 | 1012.8 |
| 20260506082506 | 35 | 312 | 0.0 | 2.0 | 0.00 | 0.00 | 0.00 | 71 | 1012.8 |
| 20260506082006 | 35 | 312 | 0.0 | 3.0 | 0.00 | 0.00 | 0.00 | 71 | 1012.8 |
| 20260506081007 | 35 | 312 | 0.0 | 1.0 | 0.00 | 0.00 | 0.00 | 70 | 1012.6 |
| 20260506080506 | 35 | 312 | 1.0 | 2.0 | 0.00 | 0.00 | 0.00 | 70 | 1012.6 |
| 20260506073506 | 36 | 312 | 0.0 | 1.0 | 0.00 | 0.00 | 0.00 | 68 | 1012.5 |
| 20260506073007 | 36 | 312 | 0.0 | 2.0 | 0.00 | 0.00 | 0.00 | 67 | 1012.4 |
| 20260506072507 | 36 | 312 | 0.0 | 2.0 | 0.00 | 0.00 | 0.00 | 68 | 1012.4 |
| 20260506072007 | 36 | 312 | 0.0 | 1.0 | 0.00 | 0.00 | 0.00 | 68 | 1012.3 |
| 20260506071506 | 37 | 312 | 0.0 | 1.0 | 0.00 | 0.00 | 0.00 | 68 | 1012.3 |
| 20260506070506 | 37 | 312 | 0.0 | 0.0 | 0.00 | 0.00 | 0.00 | 67 | 1012.2 |
| 20260506062506 | 38 | 312 | 0.0 | 1.0 | 0.00 | 0.00 | 0.00 | 65 | 1011.9 |
| 20260506062007 | 38 | 312 | 0.0 | 1.0 | 0.00 | 0.00 | 0.00 | 64 | 1012.0 |
| 20260506061006 | 38 | 312 | 0.0 | 0.0 | 0.00 | 0.00 | 0.00 | 63 | 1012.0 |
| 20260506051006 | 41 | 298 | 0.0 | 2.0 | 0.00 | 0.00 | 0.00 | 58 | 1011.6 |
| 20260506045007 | 41 | 298 | 0.0 | 1.0 | 0.00 | 0.00 | 0.00 | 57 | 1011.4 |
| 20260506044506 | 42 | 298 | 0.0 | 1.0 | 0.00 | 0.00 | 0.00 | 57 | 1011.4 |
| 20260506044007 | 42 | 298 | 0.0 | 0.0 | 0.00 | 0.00 | 0.00 | 57 | 1011.4 |
| 20260506043506 | 42 | 298 | 0.0 | 2.0 | 0.00 | 0.00 | 0.00 | 56 | 1011.4 |
| 20260506043006 | 42 | 298 | 0.0 | 3.0 | 0.00 | 0.00 | 0.00 | 56 | 1011.4 |
| 20260506042506 | 42 | 298 | 1.0 | 3.0 | 0.00 | 0.00 | 0.00 | 55 | 1011.3 |
| 20260506041506 | 42 | 292 | 1.0 | 2.0 | 0.00 | 0.00 | 0.00 | 54 | 1011.3 |
| 20260506040506 | 43 | 287 | 1.0 | 3.0 | 0.00 | 0.00 | 0.00 | 54 | 1011.2 |
| 20260506040006 | 43 | 308 | 1.0 | 3.0 | 0.00 | 0.00 | 0.00 | 53 | 1011.2 |
| 20260506035506 | 43 | 315 | 1.0 | 3.0 | 0.00 | 0.00 | 0.00 | 53 | 1011.1 |
| 20260506035006 | 43 | 315 | 0.0 | 2.0 | 0.00 | 0.00 | 0.00 | 53 | 1011.1 |
| 20260506034006 | 44 | 294 | 1.0 | 6.0 | 0.00 | 0.00 | 0.00 | 52 | 1011.1 |
| 20260506033506 | 44 | 302 | 1.0 | 5.0 | 0.00 | 0.00 | 0.00 | 52 | 1011.0 |
| 20260506033007 | 44 | 300 | 1.0 | 5.0 | 0.00 | 0.00 | 0.00 | 52 | 1010.9 |
| 20260506032507 | 44 | 290 | 0.0 | 3.0 | 0.00 | 0.00 | 0.00 | 53 | 1010.8 |
| 20260506032006 | 44 | 290 | 1.0 | 3.0 | 0.00 | 0.00 | 0.00 | 52 | 1010.9 |
| 20260506031506 | 44 | 290 | 1.0 | 2.0 | 0.00 | 0.00 | 0.00 | 52 | 1010.9 |
| 20260506031007 | 44 | 290 | 1.0 | 2.0 | 0.00 | 0.00 | 0.00 | 52 | 1010.9 |
| 20260506030506 | 44 | 290 | 1.0 | 3.0 | 0.00 | 0.00 | 0.00 | 52 | 1010.7 |
| 20260506025007 | 45 | 290 | 0.0 | 0.0 | 0.00 | 0.00 | 0.00 | 51 | 1010.7 |
| 20260506024506 | 45 | 290 | 0.0 | 0.0 | 0.00 | 0.00 | 0.00 | 51 | 1010.6 |
| 20260506023006 | 46 | 290 | 0.0 | 0.0 | 0.00 | 0.00 | 0.00 | 50 | 1010.5 |
| 20260506022506 | 46 | 290 | 0.0 | 2.0 | 0.00 | 0.00 | 0.00 | 50 | 1010.3 |
| 20260506021506 | 46 | 290 | 2.0 | 3.0 | 0.00 | 0.00 | 0.00 | 47 | 1010.2 |
| 20260506021006 | 46 | 321 | 1.0 | 3.0 | 0.00 | 0.00 | 0.00 | 48 | 1010.3 |
| 20260506020506 | 46 | 321 | 0.0 | 3.0 | 0.00 | 0.00 | 0.00 | 48 | 1010.1 |
| 20260506015006 | 47 | 321 | 0.0 | 2.0 | 0.00 | 0.00 | 0.00 | 47 | 1010.0 |
| 20260506014506 | 47 | 321 | 0.0 | 5.0 | 0.00 | 0.00 | 0.00 | 47 | 1009.9 |
| 20260506014006 | 47 | 314 | 2.0 | 5.0 | 0.00 | 0.00 | 0.00 | 45 | 1009.7 |
| 20260506013506 | 47 | 284 | 1.0 | 3.0 | 0.00 | 0.00 | 0.00 | 46 | 1009.7 |
| 20260506013006 | 47 | 296 | 2.0 | 7.0 | 0.00 | 0.00 | 0.00 | 45 | 1009.6 |
| 20260506012506 | 47 | 305 | 2.0 | 5.0 | 0.00 | 0.00 | 0.00 | 45 | 1009.6 |
| 20260506012007 | 47 | 300 | 2.0 | 7.0 | 0.00 | 0.00 | 0.00 | 45 | 1009.6 |
| 20260506011506 | 48 | 310 | 2.0 | 7.0 | 0.00 | 0.00 | 0.00 | 44 | 1009.6 |
| 20260506011006 | 48 | 294 | 1.0 | 3.0 | 0.00 | 0.00 | 0.00 | 44 | 1009.6 |
| 20260506010506 | 48 | 293 | 3.0 | 9.0 | 0.00 | 0.00 | 0.00 | 45 | 1009.5 |